SKYSAT 1

导读

SKYSAT 1是美国发射的高清遥感卫星,于2013年11月21日发射入轨,属于SkySat系列小卫星,由Skybox Imaging公司主导打造。该卫星具备亚米级高分辨率成像能力,可提供高质量对地观测影像,服务于测绘、环境监测、城市规划、灾害评估等多个领域,推动了商业高清遥感卫星应用发展。

Basic Information
目录编号:
39418
目录名称:
SKYSAT 1
国际标识:
2013-066C
轨道中心:
EARTH
卫星名称:
SKYSAT 1
卫星全名:
--
卫星状态:
在轨 (已飞行4677 天)
发射日期:
2013-11-21 UTC
国别 :
美国 (US)
星等 :
--
Orbit Information
数据来源 国际轨道数据 AOE轨道数据
星历时间 2026-09-11T00:40:04+0800
11小时前
查看轨道信息
2026-09-09T23:00:00+0800
1天前
查看轨道信息
半长轴 6904.033km 6904.05km
偏心率 0.0021748 0.0021794
轨道倾角 97.374° 97.376°
近地点辐角 22.770° 26.182°
升交点赤经 300.352° 299.319°
平近点角 337.450° 270.952°
近地点 510.881km 510.866km
远地点 540.911km 540.96km
周期 95.151分钟 95.151分钟
每日圈数 15.133819 15.133763
Detailed Information
使用方式:
暂无
2D Orbit Map
3D Orbit Map
Orbit Altitude Analysis Chart
Orbit Inclination Analysis Chart
Orbit Comprehensive Analysis Chart
View Comprehensive Chart
Conjunction Data List
Event ID Objects TCA Miss Dist (km) Collision Risk Probability Collision Risk Index (CRI) Action
CDM_260912-212302-046503-941823
SKYSAT 1 (39418)
2026-09-12T
21:23:22+0000
2.546 km
极远距离
1.339118E-6 低风险 0.38
Miss Distance Evolution Trend with All Objects
Collision Probability Evolution Trend with All Objects